Change the Weather History Date:

Tuesday, June 25, 2013

  Actual Average (KTUL) Record (KTUL)
Temperature  
Mean Temperature 80 °F 80 °F  
Max Temperature 87 °F 90 °F 105 °F (1933)
Min Temperature 73 °F 70 °F 52 °F (1974)
Cooling Degree Days 15 15  
Month to date cooling degree days 300  
Year to date cooling degree days 534  
Since 1 June cooling degree days 300  
Growing Degree Days 30 (Base 50)    
Moisture  
Dew Point 70 °F    
Average Humidity 70    
Maximum Humidity 88    
Minimum Humidity 52    
Precipitation  
Precipitation 0.00 in 0.14 in 2.30 in (1895)
Month to date precipitation 4.06  
Year to date precipitation 20.56  
Sea Level Pressure  
Sea Level Pressure 29.92 in    
Wind  
Wind Speed 12 mph (South)    
Max Wind Speed 25 mph    
Max Gust Speed 33 mph    
Visibility 9 miles    
Events      
T = Trace of Precipitation, MM = Missing Value Source: NWS Daily Summary

Daily Weather History Graph

Daily Weather History Graph

Search for Another Location

Airport or City:

Trip Planner

Search our weather history database for the weather conditions in past years. The results will help you decide how hot, cold, wet, or windy it might be!

Date:

Astronomy

Jun. 25, 2013 Rise Set
Actual Time 6:05 AM CDT 8:43 PM CDT
Civil Twilight 5:35 AM CDT 9:13 PM CDT
Nautical Twilight 4:57 AM CDT 9:51 PM CDT
Astronomical Twilight 4:15 AM CDT 10:33 PM CDT
Moon 10:35 PM CDT (6/25) 8:42 AM CDT (6/25)
Length of Visible Light 15h 38m
Length of Day
14h 37m
Waning Gibbous, 92% of the Moon is Illuminated
Jun 25
Waning Gibbous
Jun 29
Last Quarter
Jul 8
New
Jul 15
First Quarter
Jul 22
Full

Hourly Weather History & Observations

Time (CDT) Temp. Heat Index Dew Point Humidity Pressure Visibility Wind Dir Wind Speed Gust Speed Precip Events Conditions
12:15 AM 77.0 °F - 68.0 °F 74% 29.97 in 10.0 mi SE 6.9 mph - N/A   Clear
12:35 AM 75.2 °F - 68.0 °F 78% 29.97 in 10.0 mi SE 6.9 mph - N/A   Clear
12:55 AM 75.2 °F - 68.0 °F 78% 29.96 in 10.0 mi SSE 9.2 mph - N/A   Clear
1:15 AM 77.0 °F - 68.0 °F 74% 29.97 in 10.0 mi SSE 6.9 mph - N/A   Clear
1:35 AM 77.0 °F - 69.8 °F 78% 29.96 in 10.0 mi SSE 8.1 mph - N/A   Clear
1:55 AM 77.0 °F - 69.8 °F 78% 29.96 in 10.0 mi SSE 8.1 mph - N/A   Clear
2:15 AM 77.0 °F - 69.8 °F 78% 29.96 in 10.0 mi SSE 8.1 mph - N/A   Clear
2:35 AM 77.0 °F - 69.8 °F 78% 29.96 in 10.0 mi SSE 10.4 mph - N/A   Clear
2:55 AM 77.0 °F - 69.8 °F 78% 29.96 in 10.0 mi SSE 8.1 mph - N/A   Clear
3:15 AM 77.0 °F - 69.8 °F 78% 29.96 in 10.0 mi SSE 8.1 mph - N/A   Clear
3:35 AM 77.0 °F - 69.8 °F 78% 29.96 in 10.0 mi SSE 5.8 mph - N/A   Clear
3:55 AM 77.0 °F - 69.8 °F 78% 29.95 in 10.0 mi SSE 8.1 mph - N/A   Clear
4:15 AM 77.0 °F - 69.8 °F 78% 29.95 in 10.0 mi SSE 9.2 mph - N/A   Clear
4:35 AM 77.0 °F - 69.8 °F 78% 29.94 in 10.0 mi South 10.4 mph - N/A   Clear
4:55 AM 75.2 °F - 69.8 °F 83% 29.94 in 10.0 mi South 9.2 mph - N/A   Clear
5:15 AM 75.2 °F - 69.8 °F 83% 29.94 in 10.0 mi South 10.4 mph - N/A   Clear
5:35 AM 75.2 °F - 69.8 °F 83% 29.94 in 10.0 mi South 10.4 mph - N/A   Clear
5:55 AM 73.4 °F - 69.8 °F 88% 29.95 in 10.0 mi South 10.4 mph - N/A   Clear
6:15 AM 73.4 °F - 69.8 °F 88% 29.95 in 10.0 mi South 13.8 mph 17.3 mph N/A   Clear
6:35 AM 75.2 °F - 69.8 °F 83% 29.95 in 10.0 mi South 11.5 mph 17.3 mph N/A   Clear
6:55 AM 75.2 °F - 69.8 °F 83% 29.96 in 10.0 mi South 10.4 mph - N/A   Clear
7:15 AM 77.0 °F - 69.8 °F 78% 29.95 in 10.0 mi South 11.5 mph - N/A   Clear
7:35 AM 77.0 °F - 69.8 °F 78% 29.96 in 10.0 mi South 11.5 mph 17.3 mph N/A   Clear
7:55 AM 78.8 °F - 69.8 °F 74% 29.96 in 10.0 mi South 11.5 mph 16.1 mph N/A   Clear
8:15 AM 78.8 °F - 69.8 °F 74% 29.95 in 10.0 mi South 15.0 mph 19.6 mph N/A   Clear
8:35 AM 78.8 °F - 69.8 °F 74% 29.95 in 10.0 mi South 12.7 mph 21.9 mph N/A   Clear
8:55 AM 78.8 °F - 69.8 °F 74% 29.95 in 10.0 mi South 16.1 mph 24.2 mph N/A   Clear
9:15 AM 80.6 °F 83.9 °F 69.8 °F 70% 29.96 in 10.0 mi South 17.3 mph - N/A   Clear
9:35 AM 80.6 °F 83.9 °F 69.8 °F 70% 29.96 in 10.0 mi South 17.3 mph 20.7 mph N/A   Clear
9:55 AM 80.6 °F 83.9 °F 69.8 °F 70% 29.96 in 10.0 mi SSW 15.0 mph 23.0 mph N/A   Clear
10:15 AM 82.4 °F 86.3 °F 69.8 °F 66% 29.96 in 10.0 mi South 17.3 mph 24.2 mph N/A   Clear
10:35 AM 82.4 °F 86.3 °F 69.8 °F 66% 29.96 in 10.0 mi South 19.6 mph 25.3 mph N/A   Clear
10:55 AM 82.4 °F 86.3 °F 69.8 °F 66% 29.96 in 10.0 mi South 16.1 mph - N/A   Clear
11:15 AM 86.0 °F 90.4 °F 69.8 °F 58% 29.96 in 10.0 mi South 15.0 mph 23.0 mph N/A   Clear
11:35 AM 86.0 °F 90.4 °F 69.8 °F 58% 29.96 in 10.0 mi South 17.3 mph 24.2 mph N/A   Clear
11:55 AM 82.4 °F 86.3 °F 69.8 °F 66% 29.96 in 10.0 mi SSW 13.8 mph 20.7 mph N/A   Clear
12:15 PM 82.4 °F 86.3 °F 69.8 °F 66% 29.96 in 10.0 mi South 13.8 mph 17.3 mph N/A   Clear
12:35 PM 80.6 °F 83.9 °F 69.8 °F 70% 29.95 in 10.0 mi South 11.5 mph - N/A   Clear
12:55 PM 80.6 °F 83.9 °F 69.8 °F 70% 29.96 in 10.0 mi South 8.1 mph 18.4 mph N/A   Clear
1:15 PM 80.6 °F 83.9 °F 69.8 °F 70% 29.93 in 10.0 mi South 15.0 mph 19.6 mph N/A   Clear
1:35 PM 82.4 °F 86.3 °F 69.8 °F 66% 29.92 in 10.0 mi South 19.6 mph 26.5 mph N/A   Clear
1:55 PM 84.2 °F 89.6 °F 71.6 °F 66% 29.91 in 10.0 mi South 16.1 mph 28.8 mph N/A   Clear
2:15 PM 86.0 °F 90.4 °F 69.8 °F 58% 29.90 in 10.0 mi South 19.6 mph 29.9 mph N/A   Clear
2:35 PM 87.8 °F 92.6 °F 69.8 °F 55% 29.90 in 7.0 mi South 20.7 mph 29.9 mph N/A   Clear
2:55 PM 87.8 °F 92.6 °F 69.8 °F 55% 29.90 in 7.0 mi South 20.7 mph 28.8 mph N/A   Clear
3:15 PM 87.8 °F 91.4 °F 68.0 °F 52% 29.89 in 10.0 mi South 24.2 mph 33.4 mph N/A   Clear
3:35 PM 87.8 °F 92.6 °F 69.8 °F 55% 29.89 in 7.0 mi South 21.9 mph 31.1 mph N/A   Clear
3:55 PM 87.8 °F 92.6 °F 69.8 °F 55% 29.88 in 7.0 mi South 20.7 mph 31.1 mph N/A   Clear
4:15 PM 86.0 °F 89.4 °F 68.0 °F 55% 29.88 in 10.0 mi South 18.4 mph 31.1 mph N/A   Clear
4:35 PM 87.8 °F 92.6 °F 69.8 °F 55% 29.88 in 7.0 mi South 23.0 mph 29.9 mph N/A   Clear
4:55 PM 86.0 °F 90.4 °F 69.8 °F 58% 29.87 in 7.0 mi South 17.3 mph 29.9 mph N/A   Clear
5:15 PM 86.0 °F 90.4 °F 69.8 °F 58% 29.86 in 7.0 mi SSW 23.0 mph 31.1 mph N/A   Scattered Clouds
5:35 PM 87.8 °F 92.6 °F 69.8 °F 55% 29.86 in 7.0 mi SSW 21.9 mph 31.1 mph N/A   Scattered Clouds
5:55 PM 87.8 °F 92.6 °F 69.8 °F 55% 29.85 in 7.0 mi South 25.3 mph 32.2 mph N/A   Clear
6:15 PM 86.0 °F 90.4 °F 69.8 °F 58% 29.84 in 7.0 mi South 23.0 mph 31.1 mph N/A   Clear
6:35 PM 86.0 °F 90.4 °F 69.8 °F 58% 29.84 in 7.0 mi South 17.3 mph 27.6 mph N/A   Clear
6:55 PM 86.0 °F 90.4 °F 69.8 °F 58% 29.84 in 7.0 mi South 18.4 mph 23.0 mph N/A   Scattered Clouds
7:15 PM 86.0 °F 90.4 °F 69.8 °F 58% 29.84 in 7.0 mi South 21.9 mph 27.6 mph N/A   Scattered Clouds
7:35 PM 84.2 °F 88.4 °F 69.8 °F 62% 29.84 in 10.0 mi South 16.1 mph 24.2 mph N/A   Clear
7:55 PM 82.4 °F 86.3 °F 69.8 °F 66% 29.85 in 7.0 mi South 12.7 mph 21.9 mph N/A   Clear
8:15 PM 82.4 °F 86.3 °F 69.8 °F 66% 29.85 in 10.0 mi South 11.5 mph - N/A   Clear
8:35 PM 82.4 °F 86.3 °F 69.8 °F 66% 29.86 in 7.0 mi South 9.2 mph - N/A   Clear
8:55 PM 80.6 °F 83.9 °F 69.8 °F 70% 29.86 in 7.0 mi South 10.4 mph - N/A   Clear
9:15 PM 80.6 °F 83.9 °F 69.8 °F 70% 29.86 in 7.0 mi South 9.2 mph - N/A   Clear
9:35 PM 78.8 °F - 69.8 °F 74% 29.86 in 7.0 mi South 6.9 mph - N/A   Clear
9:55 PM 78.8 °F - 69.8 °F 74% 29.86 in 7.0 mi SSE 8.1 mph - N/A   Clear
10:15 PM 78.8 °F - 69.8 °F 74% 29.86 in 7.0 mi South 10.4 mph - N/A   Clear
10:35 PM 78.8 °F - 69.8 °F 74% 29.86 in 7.0 mi South 8.1 mph - N/A   Clear
10:55 PM 78.8 °F - 69.8 °F 74% 29.86 in 7.0 mi SSE 9.2 mph - N/A   Clear
11:15 PM 78.8 °F - 69.8 °F 74% 29.87 in 7.0 mi SSE 8.1 mph - N/A   Clear
11:35 PM 77.0 °F - 69.8 °F 78% 29.86 in 7.0 mi SSE 8.1 mph - N/A   Clear
11:55 PM 78.8 °F - 69.8 °F 74% 29.86 in 7.0 mi South 10.4 mph - N/A   Clear